When you browse on this site, cookies collect data to enhance your experience and personalize the content and advertising you see.
Visit our Privacy Policy to learn more. By continuing to use the site, you agree to this use of cookies and data.
  • In Österreich
  • Länderverzeichnis
  • Für 7 Tage
  • Wassertemperatur
  • Satellitenkarten
  • Wetterkarte
  • News
  • Widgets
  • user-avatar
    Anmelden

    Stündliche Wetter Rivchak-Stepanivka

    Heute, 19 Mai, Sonntag

    Zeit Temperatur Niederschläge Wind Luftdruck Luftfeuchtigkeit
    00:00 +14°C° 0 mm 4 m/S 749 mmHg 78%
    01:00 +14°C° 0 mm 4 m/S 749 mmHg 78%
    02:00 +13°C° 0 mm 3 m/S 748 mmHg 75%
    03:00 +13°C° 0 mm 3 m/S 749 mmHg 76%
    04:00 +12°C° 0 mm 4 m/S 749 mmHg 76%
    05:00 +12°C° 0 mm 4 m/S 749 mmHg 77%
    06:00 +14°C° 0 mm 4 m/S 749 mmHg 75%
    07:00 +17°C° 0 mm 4 m/S 749 mmHg 73%
    08:00 +18°C° 0 mm 4 m/S 749 mmHg 70%
    09:00 +20°C° 0 mm 4 m/S 749 mmHg 66%
    10:00 +21°C° 0 mm 4 m/S 749 mmHg 63%
    11:00 +22°C° 0 mm 5 m/S 749 mmHg 60%
    12:00 +23°C° 0 mm 5 m/S 749 mmHg 58%
    13:00 +23°C° 0 mm 5 m/S 749 mmHg 57%
    14:00 +25°C° 0 mm 5 m/S 749 mmHg 55%
    15:00 +23°C° 0 mm 5 m/S 749 mmHg 58%
    16:00 +23°C° 0 mm 4 m/S 749 mmHg 62%
    17:00 +23°C° 0 mm 4 m/S 749 mmHg 65%
    18:00 +21°C° 0 mm 4 m/S 749 mmHg 70%
    19:00 +19°C° 0 mm 3 m/S 749 mmHg 75%
    20:00 +18°C° 0 mm 3 m/S 750 mmHg 80%
    21:00 +17°C° 0 mm 4 m/S 750 mmHg 80%
    22:00 +17°C° 0 mm 4 m/S 750 mmHg 80%
    23:00 +15°C° 0 mm 4 m/S 750 mmHg 80%

    Morgen, 20 Mai, Montag

    Zeit Temperatur Niederschläge Wind Luftdruck Luftfeuchtigkeit
    00:00 +15°C° 0 mm 4 m/S 751 mmHg 79%
    01:00 +15°C° 0 mm 4 m/S 751 mmHg 78%
    02:00 +14°C° 0 mm 5 m/S 751 mmHg 77%
    03:00 +14°C° 0 mm 5 m/S 751 mmHg 77%
    04:00 +14°C° 0 mm 5 m/S 751 mmHg 78%
    05:00 +13°C° 0 mm 5 m/S 751 mmHg 79%
    06:00 +15°C° 0 mm 5 m/S 751 mmHg 76%
    07:00 +16°C° 0 mm 6 m/S 752 mmHg 72%
    08:00 +18°C° 0 mm 7 m/S 752 mmHg 69%
    09:00 +20°C° 0 mm 7 m/S 752 mmHg 67%
    10:00 +21°C° 0 mm 7 m/S 752 mmHg 64%
    11:00 +22°C° 0 mm 7 m/S 752 mmHg 61%
    12:00 +23°C° 0 mm 7 m/S 752 mmHg 60%
    13:00 +23°C° 0 mm 7 m/S 752 mmHg 59%
    14:00 +24°C° 0 mm 7 m/S 752 mmHg 59%
    15:00 +23°C° 0 mm 6 m/S 751 mmHg 62%
    16:00 +23°C° 0 mm 6 m/S 751 mmHg 65%
    17:00 +23°C° 0 mm 5 m/S 751 mmHg 67%
    18:00 +21°C° 0 mm 5 m/S 751 mmHg 69%
    19:00 +20°C° 0 mm 6 m/S 751 mmHg 70%
    20:00 +19°C° 0 mm 6 m/S 751 mmHg 72%
    21:00 +19°C° 0 mm 6 m/S 751 mmHg 69%
    22:00 +17°C° 0 mm 7 m/S 751 mmHg 67%
    23:00 +17°C° 0 mm 7 m/S 751 mmHg 65%

    übermorgen, 21 Mai, Dienstag

    Zeit Temperatur Niederschläge Wind Luftdruck Luftfeuchtigkeit
    00:00 +17°C° 0 mm 7 m/S 751 mmHg 64%
    01:00 +17°C° 0 mm 7 m/S 751 mmHg 64%
    02:00 +17°C° 0 mm 7 m/S 751 mmHg 63%
    03:00 +16°C° 0 mm 7 m/S 751 mmHg 65%
    04:00 +16°C° 0 mm 6 m/S 751 mmHg 68%
    05:00 +15°C° 0 mm 6 m/S 751 mmHg 71%
    06:00 +16°C° 0 mm 6 m/S 751 mmHg 71%
    07:00 +16°C° 0 mm 7 m/S 751 mmHg 72%
    08:00 +17°C° 0 mm 7 m/S 751 mmHg 72%
    09:00 +20°C° 0 mm 7 m/S 750 mmHg 70%
    10:00 +21°C° 0 mm 8 m/S 750 mmHg 67%
    11:00 +23°C° 0 mm 8 m/S 750 mmHg 64%
    12:00 +23°C° 0.1 mm 8 m/S 750 mmHg 64%
    13:00 +23°C° 0.1 mm 8 m/S 749 mmHg 64%
    14:00 +23°C° 0.1 mm 7 m/S 749 mmHg 65%
    15:00 +23°C° 0.1 mm 6 m/S 749 mmHg 68%
    16:00 +22°C° 0.1 mm 6 m/S 748 mmHg 71%
    17:00 +22°C° 0.1 mm 5 m/S 748 mmHg 74%
    18:00 +21°C° 0.1 mm 5 m/S 748 mmHg 76%
    19:00 +20°C° 0.1 mm 4 m/S 748 mmHg 78%
    20:00 +19°C° 0.1 mm 4 m/S 747 mmHg 80%
    21:00 +19°C° 0 mm 4 m/S 747 mmHg 82%
    22:00 +18°C° 0 mm 4 m/S 747 mmHg 83%
    23:00 +18°C° 0 mm 4 m/S 747 mmHg 84%

    22 Mai, Mittwoch

    Zeit Temperatur Niederschläge Wind Luftdruck Luftfeuchtigkeit
    00:00 +17°C° 0.2 mm 4 m/S 747 mmHg 87%
    01:00 +17°C° 0.2 mm 4 m/S 747 mmHg 89%
    02:00 +15°C° 0.2 mm 5 m/S 747 mmHg 92%
    03:00 +15°C° 0.1 mm 4 m/S 747 mmHg 93%
    04:00 +15°C° 0.1 mm 4 m/S 746 mmHg 94%
    05:00 +15°C° 0.1 mm 4 m/S 746 mmHg 95%
    06:00 +17°C° 0.6 mm 4 m/S 746 mmHg 93%
    07:00 +17°C° 0.6 mm 4 m/S 746 mmHg 92%
    08:00 +18°C° 0.6 mm 4 m/S 746 mmHg 90%
    09:00 +18°C° 0.1 mm 4 m/S 746 mmHg 89%
    10:00 +18°C° 0.1 mm 4 m/S 746 mmHg 87%
    11:00 +19°C° 0.1 mm 4 m/S 746 mmHg 85%
    12:00 +20°C° 0.4 mm 3 m/S 746 mmHg 81%
    13:00 +20°C° 0.4 mm 3 m/S 745 mmHg 77%
    14:00 +21°C° 0.4 mm 3 m/S 745 mmHg 73%
    15:00 +21°C° 0.6 mm 3 m/S 745 mmHg 73%
    16:00 +21°C° 0.6 mm 2 m/S 744 mmHg 74%
    17:00 +20°C° 0.6 mm 2 m/S 744 mmHg 74%
    18:00 +19°C° 0 mm 2 m/S 744 mmHg 78%
    19:00 +18°C° 0 mm 2 m/S 744 mmHg 81%
    20:00 +18°C° 0 mm 1 m/S 744 mmHg 85%
    21:00 +16°C° 0 mm 1 m/S 744 mmHg 87%
    22:00 +16°C° 0 mm 1 m/S 744 mmHg 88%
    23:00 +15°C° 0 mm 1 m/S 744 mmHg 90%

    23 Mai, Donnerstag

    Zeit Temperatur Niederschläge Wind Luftdruck Luftfeuchtigkeit
    00:00 +15°C° 0 mm 1 m/S 744 mmHg 91%
    01:00 +14°C° 0 mm 1 m/S 743 mmHg 92%
    02:00 +14°C° 0 mm 1 m/S 743 mmHg 92%
    03:00 +14°C° 0 mm 1 m/S 743 mmHg 93%
    04:00 +14°C° 0 mm 1 m/S 743 mmHg 94%
    05:00 +14°C° 0 mm 1 m/S 743 mmHg 94%
    06:00 +15°C° 0 mm 1 m/S 743 mmHg 89%
    07:00 +18°C° 0 mm 1 m/S 743 mmHg 84%
    08:00 +19°C° 0 mm 1 m/S 744 mmHg 78%
    09:00 +21°C° 0 mm 1 m/S 743 mmHg 73%
    10:00 +22°C° 0 mm 1 m/S 743 mmHg 67%
    11:00 +23°C° 0 mm 2 m/S 743 mmHg 62%
    12:00 +24°C° 0 mm 2 m/S 743 mmHg 61%
    13:00 +24°C° 0 mm 3 m/S 743 mmHg 60%
    14:00 +25°C° 0 mm 3 m/S 743 mmHg 60%
    15:00 +24°C° 0.3 mm 3 m/S 743 mmHg 64%
    16:00 +24°C° 0.3 mm 3 m/S 743 mmHg 68%
    17:00 +22°C° 0.3 mm 3 m/S 743 mmHg 73%
    18:00 +20°C° 0 mm 3 m/S 743 mmHg 78%
    19:00 +19°C° 0 mm 3 m/S 743 mmHg 83%
    20:00 +17°C° 0 mm 2 m/S 743 mmHg 89%
    21:00 +17°C° 0 mm 2 m/S 743 mmHg 90%
    22:00 +16°C° 0 mm 2 m/S 743 mmHg 91%
    23:00 +16°C° 0 mm 2 m/S 743 mmHg 92%

    24 Mai, Freitag

    Zeit Temperatur Niederschläge Wind Luftdruck Luftfeuchtigkeit
    00:00 +15°C° 0 mm 2 m/S 743 mmHg 93%
    01:00 +15°C° 0 mm 2 m/S 743 mmHg 93%
    02:00 +15°C° 0 mm 2 m/S 743 mmHg 94%
    03:00 +15°C° 0 mm 2 m/S 743 mmHg 94%
    04:00 +15°C° 0 mm 2 m/S 743 mmHg 94%
    05:00 +15°C° 0 mm 2 m/S 743 mmHg 94%
    06:00 +16°C° 0 mm 3 m/S 743 mmHg 89%
    07:00 +18°C° 0 mm 3 m/S 743 mmHg 84%
    08:00 +20°C° 0 mm 3 m/S 743 mmHg 80%
    09:00 +21°C° 0.8 mm 3 m/S 743 mmHg 76%
    10:00 +22°C° 0.8 mm 4 m/S 743 mmHg 73%
    11:00 +23°C° 0.8 mm 4 m/S 742 mmHg 70%
    12:00 +23°C° 1 mm 4 m/S 742 mmHg 69%
    13:00 +23°C° 1 mm 4 m/S 742 mmHg 69%
    14:00 +23°C° 1 mm 4 m/S 742 mmHg 68%
    15:00 +23°C° 0 mm 4 m/S 741 mmHg 68%
    16:00 +25°C° 0 mm 4 m/S 741 mmHg 69%
    17:00 +25°C° 0 mm 3 m/S 741 mmHg 70%
    18:00 +22°C° 0.8 mm 3 m/S 741 mmHg 75%
    19:00 +20°C° 0.8 mm 3 m/S 741 mmHg 81%
    20:00 +19°C° 0.8 mm 3 m/S 740 mmHg 87%
    21:00 +18°C° 0.2 mm 2 m/S 740 mmHg 88%
    22:00 +17°C° 0.2 mm 2 m/S 740 mmHg 90%
    23:00 +17°C° 0.2 mm 2 m/S 740 mmHg 92%
    Mehr zeigen